Location: Newark
(11.2914°S, 14.4718°E)
Time: 07:03:09
(UTC+00:00)

Vanguard 2 - Pass Details

Date: 18 September 2019
Orbit: 554 x 2937 km, 32.9° (Epoch: 17 October)

Event Time Altitude Azimuth Distance (km) Brightness Sun altitude
Rises 21:57:17 0° 239° (WSW) 6,336 12.4 -72.5°
Reaches altitude 10° 22:01:11 10° 240° (WSW) 5,505 12.0 -73.3°
Enters shadow 22:05:15 22° 241° (WSW) 4,677 11.5 -74.1°
